Regional Weather Roundup
Issued by NWS Sioux Falls, SD

Home | Current Version | Previous Version | Graphics & Text | Print | Product List | Glossary On
Versions: 1 2 3 4 5 6 7 8 9 10 11 12 13 14 15 16 17 18 19 20 21 22 23 24 25 26 27 28 29 30 31 32 33 34 35 36 37 38 39 40 41 42 43 44 45 46 47 48 49 50
000
ASUS43 KFSD 291710
RWRFSD

WEATHER ROUNDUP FOR SE SOUTH DAKOTA/SW MINNESOTA/NW IOWA
NATIONAL WEATHER SERVICE SIOUX FALLS SD
1200 PM CDT FRI MAY 29 2015

NOTE: "FAIR" INDICATES FEW OR NO CLOUDS BELOW 12,000 FEET WITH NO
SIGNIFICANT WEATHER AND OR OBSTRUCTIONS TO VISIBILITY.


SDZ038>040-050-052>070-291800-
SOUTHEAST SOUTH DAKOTA

CITY           SKY/WX    TMP DP  RH WIND       PRES   REMARKS
BROOKINGS      CLOUDY    54  48  82 N17G25    29.99R
CHAMBERLAIN    LGT RAIN  52  51  97 N22G30    30.05R
HURON            N/A    N/A N/A N/A MISG      30.03R
MADISON        HVY RAIN  54  54 100 N23G29    29.97R
MITCHELL       LGT RAIN  59  56  89 N23G33    29.97R
SIOUX FALLS    CLOUDY    70  63  78 NE5       29.90S
WINNER         CLOUDY    57  51  80 N24G36    30.07R
YANKTON        PTSUNNY   70  61  73 W10       29.89S
$$

MNZ071-072-080-081-089-090-097-098-291800-
SOUTHWEST MINNESOTA

CITY           SKY/WX    TMP DP  RH WIND       PRES   REMARKS
FAIRMONT       CLOUDY    68  61  77 SW6       29.90F
JACKSON        CLOUDY    68  64  88 SW5       29.92S
LUVERNE        LGT RAIN  66  63  88 S7        29.91R
MARSHALL       CLOUDY    55  48  76 N21G29    29.95R
MONTEVIDEO     LGT RAIN  55  55 100 N18G25    29.97R
PIPESTONE      CLOUDY    59  55  88 N21       29.94R
REDWOOD FALLS  RAIN      64  62  93 N8        29.91R FOG
TRACY          LGT RAIN  62  61  97 N12       29.94R
WINDOM         RAIN      64  63  94 CALM      29.92S
WORTHINGTON    CLOUDY    66  61  82 S5        29.91S
$$

IAZ001>003-012>014-020>022-031-032-NEZ013-014-SDZ071-291800-
NORTHWEST IOWA

CITY           SKY/WX    TMP DP  RH WIND       PRES   REMARKS
CHEROKEE       CLOUDY    72  65  78 SW7       29.89F
DENISON        CLOUDY    72  68  88 SW10      29.90S
ESTHERVILLE    CLOUDY    67  64  90 SW10      29.89F
LE MARS        CLOUDY    68  63  83 W6        29.91S
ORANGE CITY    CLOUDY    66  61  82 CALM      29.89F
SHELDON        CLOUDY    66  66 100 CALM      29.88F FOG
SIOUX CITY     CLOUDY    72  60  66 W9        29.90R
SPENCER        CLOUDY    72  65  78 W12       29.90F
STORM LAKE     CLOUDY    73  63  68 SW17      29.91S
$$

ABBREVIATIONS USED IN REMARKS
   TC - TEMPERATURE IN CELSIUS
  WCI - WIND CHILL INDEX
   HX - HEAT INDEX
  VSB - VISIBILITY



USA.gov is the U.S. government's official web portal to all federal, state and local government web resources and services.